Вернуться в каталог

PSLV R/B

АктивенHEO
NORAD 39200·ROCKET BODY·🇮🇳 India

Запущен Jul 1, 2013 с Satish Dhawan Space Centre

Loading…

Ближайшие Пролёты (ближайшие 24 часа)

TLE

СвежийSource: Space-Track

Эпоха: Sep 14, 2026, 12:58 UTC

1 39200U 13034B   26257.54041510  .00011347  00000-0  13320-2 0  9994
2 39200  17.8823  22.2609 5729674 181.4997 175.5873  4.47831266201409

Отслеживайте PSLV R/B в реальном времени с AllMySat

Download on the App Store